Terminal Aerodrome Forecast
Issued by NWS Omaha/Valley, NE

Home | Current Version | Previous Version | Text Only | Print | Product List | Glossary Off
Versions: 1 2 3 4 5 6 7 8 9 10 11 12 13 14 15 16 17 18 19 20 21 22 23 24 25 26 27 28 29 30 31 32 33 34 35 36 37 38 39 40 41 42 43

000
FTUS43 KOAX 202320
TAFOFK
TAF
KOFK 202320Z 2100/2124 15010KT P6SM FEW040
     FM210900 15006KT 6SM HZ SCT250
      TEMPO 2112/2114 4SM BR SCT010
     FM211600 17010KT P6SM SCT040=

USA.gov is the U.S. government's official web portal to all federal, state and local government web resources and services.